Flag for Netherlands Weather past 2 weeks in Apeldoorn, Netherlands

Now
37 °F

Overcast.


Feels Like: 28 °F
Forecast: 33 / 38 °F
Wind: 16 mph from West

Location: Deelen

Current Time: Jan 29, 2015 at 12:08:09 AM

Latest Report: Jan 28, 2015 at 11:25 PM


Visibility: N/A

Pressure: 29.39 "Hg

Humidity: 75%

Dew point: 30 °F

Location of ApeldoornLocation

Historic Weather in Apeldoorn — Graph

°F

Apeldoorn temperature yesterday

Maximum temperature yesterday: 43 °F (at 12:25 PM)
Minimum temperature yesterday: 36 °F (at 12:25 AM)
Average temperature yesterday: 39 °F

Past Weeks' High & Low Weather Summary

 TemperatureHumidityPressure
High50 °F (Jan 15, 11:25 AM)100% (Jan 15, 4:25 PM)30.39 "Hg (Jan 15, 4:25 PM)
Low21 °F (Jan 25, 3:25 AM)65% (Jan 17, 4:55 PM)29.33 "Hg (Jan 15, 1:25 PM)
Average35 °F90%29.93 "Hg
* Reported Jan 13 10:25 PM — Jan 28 10:55 PM, Apeldoorn, Weather by CustomWeather, © 2014

Note: Actual official high and low records may vary slightly from our data, if they occured in-between our weather recording intervals... More about our weather records

Advertising

Apeldoorn weather history for previous 24 hours

 ConditionsComfort  
Time TempWeatherWind HumidityBarometerVisibility
10:55 PM
Jan 28
37 °FOvercast.16 mph75%29.39 "HgN/A
10:25 PM36 °FLight rain. Partly cloudy.12 mph87%29.39 "HgN/A
9:55 PM37 °FPassing clouds.13 mph81%29.42 "HgN/A
9:25 PM37 °FPassing clouds.13 mph81%29.39 "HgN/A
8:55 PM37 °FPartly cloudy.15 mph81%29.39 "HgN/A
8:25 PM37 °FPassing clouds.12 mph81%29.39 "HgN/A
7:55 PM37 °FPassing clouds.12 mph81%29.39 "HgN/A
7:25 PM37 °FLight rain. Passing clouds.13 mph87%29.39 "HgN/A
6:55 PM37 °FPassing clouds.12 mph87%29.39 "HgN/A
6:25 PM37 °FPartly cloudy.10 mph93%29.39 "HgN/A
5:55 PM37 °FPassing clouds.9 mph93%29.39 "HgN/A
5:25 PM37 °FLight rain. Overcast.14 mph93%29.39 "HgN/A
4:55 PM39 °FSprinkles. Partly sunny.22 mph93%29.36 "Hg6 mi
4:25 PM43 °FSprinkles. Broken clouds.24 mph93%29.36 "Hg3 mi
3:55 PM43 °FLight rain. Broken clouds.23 mph93%29.36 "Hg2 mi
3:25 PM41 °FSprinkles. Partly sunny.24 mph93%29.39 "Hg3 mi
2:55 PM41 °FLight rain. Cloudy.25 mph93%29.42 "Hg4 mi
2:25 PM41 °FLight rain. Cloudy.24 mph93%29.45 "Hg3 mi
1:55 PM43 °FSprinkles. Mostly cloudy.24 mph87%29.47 "Hg2 mi
1:25 PM43 °FOvercast.25 mph87%29.50 "HgN/A
12:55 PM43 °FMostly cloudy.24 mph87%29.56 "HgN/A
12:25 PM43 °FMostly cloudy.24 mph87%29.59 "HgN/A
11:55 AM41 °FMore clouds than sun.23 mph93%29.62 "HgN/A
11:25 AM41 °FFog.21 mph93%29.65 "Hg3 mi
10:55 AM41 °FDrizzle. Low clouds.20 mph93%29.71 "Hg2 mi
10:25 AM41 °FDrizzle. Mostly cloudy.18 mph93%29.74 "Hg2 mi
9:55 AM41 °FCloudy.17 mph93%29.74 "HgN/A
9:25 AM41 °FDrizzle. Mostly cloudy.18 mph93%29.77 "Hg3 mi
8:55 AM41 °FOvercast.16 mph87%29.80 "HgN/A
8:25 AM41 °FMostly cloudy.15 mph87%29.83 "HgN/A
7:55 AM41 °FFog.15 mph87%29.86 "Hg6 mi
7:25 AM39 °FFog.10 mph93%29.86 "Hg4 mi
6:55 AM39 °FFog.13 mph93%29.89 "Hg4 mi
6:25 AM39 °FFog.14 mph93%29.92 "Hg4 mi
5:55 AM39 °FFog.13 mph93%29.92 "Hg4 mi
5:25 AM39 °FFog.13 mph93%29.95 "Hg3 mi
4:55 AM39 °FFog.12 mph93%29.98 "Hg3 mi
4:25 AM39 °FFog.10 mph93%29.98 "Hg2 mi
3:55 AM39 °FFog.10 mph93%30.01 "Hg3 mi
3:25 AM39 °FFog.10 mph93%30.01 "Hg3 mi
2:55 AM37 °FFog.9 mph100%30.04 "Hg2 mi
2:25 AM37 °FFog.8 mph100%30.07 "Hg2 mi
1:55 AM37 °FFog.8 mph100%30.07 "Hg2 mi
1:25 AM37 °FFog.9 mph100%30.09 "Hg2 mi
12:55 AM37 °FPartly cloudy.8 mph93%30.09 "Hg2 mi
12:25 AM36 °FFog.8 mph100%30.09 "Hg2 mi
Weather by CustomWeather, © 2014

See weather overviewHow to use our weather pages